User: anonymous   Login
Location: Unspecified
(0.0000°N, 0.0000°E)
Time: 06:58:54
(UTC+00:00)
Language:

P83-1 Hilat - Orbit

View from above orbital plane
View from above orbital plane
View from above satellite
View from above satellite

Ground track
Ground track

The orbit data is extracted from the following two-line orbital elements,

1 14154U 83063A   19082.71690812 +.00000066 +00000-0 +17054-4 0  9992
2 14154 082.0219 091.4621 0040585 002.3519 049.3725 14.36392354868040
Epoch (UTC): 23 March 2019 17:12:20
Eccentricity: 0.0040585
inclination: 82.0219°
perigee height: 741 km
apogee height: 799 km
right ascension of ascending node: 91.4621°
argument of perigee: 2.3519°
revolutions per day: 14.36392354
mean anomaly at epoch: 49.3725°
orbit number at epoch: 86804

The dashed part of the orbit path shows where the satellite is in the earth's shadow,  

DLR